START_TIME,STEP,MOV.,M15,t_acc.,M20,t_acc.
1979-08-05 09:00:42.500 ,0,0,0.,24.0,0.,24.0
1979-08-05 09:01:06.500 ,0,1,0.,24.0,0.,24.0
1979-08-05 09:01:30.500 ,0,0,0.,24.0,0.,24.0
1979-08-05 09:01:54.500 ,1,1,0.,24.0,0.,24.0
1979-08-05 09:02:18.500 ,1,0,0.,24.0,0.,24.0
1979-08-05 09:02:42.500 ,2,1,0.,24.0,0.,24.0
1979-08-05 09:03:06.500 ,2,0,0.,24.0,0.,24.0
1979-08-05 09:03:30.500 ,3,1,0.,24.0,0.,24.0
1979-08-05 09:03:54.500 ,3,0,0.,24.0,0.,24.0
1979-08-05 09:04:18.500 ,4,1,0.,24.0,0.,24.0
1979-08-05 09:04:42.500 ,4,0,0.,24.0,0.,24.0
1979-08-05 09:05:06.500 ,5,1,0.,24.0,0.,24.0
1979-08-05 09:05:30.500 ,5,0,0.,24.0,0.,24.0
1979-08-05 09:05:54.500 ,6,1,0.,24.0,0.,24.0
1979-08-05 09:06:18.500 ,6,0,0.,24.0,0.,24.0
1979-08-05 09:06:42.500 ,7,0,0.,24.0,0.,24.0
1979-08-05 09:07:06.500 ,7,0,0.,24.0,0.,24.0
1979-08-05 09:07:30.500 ,3,1,0.,24.0,0.,24.0
1979-08-05 09:07:54.500 ,0,1,0.,24.0,0.,24.0
1979-08-05 09:08:18.500 ,4,1,0.,24.0,0.,24.0
1979-08-05 09:08:42.500 ,7,1,0.,24.0,0.,24.0
1979-08-05 09:09:06.500 ,3,1,0.,24.0,0.,24.0
1979-08-05 09:09:30.500 ,0,1,0.,24.0,0.,24.0
1979-08-05 09:09:54.500 ,4,1,0.,24.0,0.,24.0
1979-08-05 09:10:18.500 ,7,1,0.,24.0,0.,24.0
1979-08-05 09:10:42.500 ,3,1,0.,24.0,0.,24.0
1979-08-05 09:11:06.500 ,0,1,0.,24.0,0.,24.0
1979-08-05 09:11:30.500 ,4,1,0.,24.0,0.,24.0
1979-08-05 09:11:54.500 ,7,1,0.,24.0,0.,24.0
1979-08-05 09:12:18.500 ,3,1,0.,24.0,0.,24.0
1979-08-05 09:12:42.500 ,0,1,0.,24.0,0.,24.0
1979-08-05 09:13:06.500 ,4,1,0.,24.0,0.,24.0
1979-08-05 09:13:30.500 ,7,1,0.,24.0,0.,24.0
1979-08-05 09:13:54.500 ,3,1,0.,24.0,0.,24.0
1979-08-05 09:14:18.500 ,0,1,0.,24.0,0.,24.0
1979-08-05 09:14:42.500 ,4,1,0.,24.0,0.,24.0
1979-08-05 09:15:06.500 ,7,1,0.,24.0,0.,24.0
1979-08-05 09:15:30.500 ,3,1,0.,24.0,0.,24.0
1979-08-05 09:15:54.500 ,0,1,0.,24.0,0.,24.0
1979-08-05 09:16:18.500 ,4,1,0.,24.0,0.,24.0
1979-08-05 09:16:42.500 ,7,1,0.,24.0,0.,24.0
1979-08-05 09:17:06.500 ,3,1,0.,24.0,0.,24.0
1979-08-05 09:17:30.500 ,0,1,0.,24.0,0.,24.0
1979-08-05 09:17:54.500 ,0,0,0.,24.0,0.,24.0
1979-08-05 09:18:18.500 ,0,0,0.,24.0,0.,24.0
1979-08-05 09:18:42.500 ,5,1,0.,24.0,0.,24.0
1979-08-05 09:19:06.500 ,5,0,0.,24.0,0.,24.0
1979-08-05 09:19:30.500 ,4,1,0.,24.0,0.,24.0
1979-08-05 09:19:54.500 ,4,0,0.,24.0,0.,24.0
1979-08-05 09:20:18.500 ,3,1,0.,24.0,0.,24.0
1979-08-05 09:20:42.500 ,3,0,0.,24.0,0.,24.0
1979-08-05 09:21:06.500 ,2,1,0.,24.0,0.,24.0
1979-08-05 09:21:30.500 ,2,0,0.,24.0,0.,24.0
1979-08-05 09:21:54.500 ,1,1,0.,24.0,0.,24.0
1979-08-05 09:22:18.500 ,1,0,0.,24.0,0.,24.0
1979-08-05 09:22:42.500 ,0,1,0.,24.0,0.,24.0
1979-08-05 09:23:06.500 ,0,0,0.,24.0,0.,24.0
1979-08-05 09:23:30.500 ,0,1,0.,24.0,0.,24.0
1979-08-05 09:23:54.500 ,0,0,0.,24.0,0.,24.0
1979-08-05 09:24:18.500 ,1,1,0.,24.0,0.,24.0
1979-08-05 09:24:42.500 ,1,0,0.,24.0,0.,24.0
1979-08-05 09:25:06.500 ,2,1,0.,24.0,0.,24.0
1979-08-05 09:25:30.500 ,2,0,0.,24.0,0.,24.0
1979-08-05 09:25:54.500 ,3,1,0.,24.0,0.,24.0
1979-08-05 09:26:18.500 ,3,0,0.,24.0,0.,24.0
1979-08-05 09:26:42.500 ,4,1,0.,24.0,0.,24.0
1979-08-05 09:27:06.500 ,4,0,0.,24.0,0.,24.0
1979-08-05 09:27:30.500 ,5,1,0.,24.0,0.,24.0
1979-08-05 09:27:54.500 ,5,0,0.,24.0,0.,24.0
1979-08-05 09:28:18.500 ,6,1,0.,24.0,0.,24.0
1979-08-05 09:28:42.500 ,6,0,0.,24.0,0.,24.0
1979-08-05 09:29:06.500 ,7,1,0.,24.0,0.,24.0
1979-08-05 09:29:30.500 ,7,0,0.,24.0,0.,24.0
1979-08-05 09:29:54.500 ,7,1,0.,24.0,0.,24.0
1979-08-05 09:30:18.500 ,7,0,0.,24.0,0.,24.0
1979-08-05 09:30:42.500 ,6,1,0.,24.0,0.,24.0
1979-08-05 09:31:06.500 ,6,0,0.,24.0,0.,24.0
1979-08-05 09:31:30.500 ,5,1,0.,24.0,0.,24.0
1979-08-05 09:31:54.500 ,5,0,0.,24.0,0.,24.0
1979-08-05 09:32:18.500 ,4,1,0.,24.0,0.,24.0
1979-08-05 09:32:42.500 ,4,0,0.,24.0,0.,24.0
1979-08-05 09:33:06.500 ,3,1,0.,24.0,0.,24.0
1979-08-05 09:33:30.500 ,3,0,0.,24.0,0.,24.0
1979-08-05 09:33:54.500 ,2,1,0.,24.0,0.,24.0
1979-08-05 09:34:18.500 ,2,0,0.,24.0,0.,24.0
1979-08-05 09:34:42.500 ,1,1,0.,24.0,0.,24.0
1979-08-05 09:35:06.500 ,1,0,0.,24.0,0.,24.0
1979-08-05 09:35:30.500 ,0,1,0.,24.0,0.,24.0
1979-08-05 09:35:54.500 ,0,0,0.,24.0,0.,24.0
1979-08-05 09:36:18.500 ,0,1,0.,24.0,0.,24.0
1979-08-05 09:36:42.500 ,0,0,0.,24.0,0.,24.0
1979-08-05 09:37:06.500 ,1,1,0.,24.0,0.,24.0
1979-08-05 09:37:30.500 ,1,0,0.,24.0,0.,24.0
1979-08-05 09:37:54.500 ,2,1,0.,24.0,0.,24.0
1979-08-05 09:38:18.500 ,2,0,0.,24.0,0.,24.0
1979-08-05 09:38:42.500 ,3,1,0.,24.0,0.,24.0
1979-08-05 09:39:06.500 ,3,0,0.,24.0,0.,24.0
1979-08-05 09:39:30.500 ,4,1,0.,24.0,0.,24.0
1979-08-05 09:39:54.500 ,4,0,0.,24.0,0.,24.0
1979-08-05 09:40:18.500 ,5,1,0.,24.0,0.,24.0
1979-08-05 09:40:42.500 ,5,0,0.,24.0,0.,24.0
1979-08-05 09:41:06.500 ,6,1,0.,24.0,0.,24.0
1979-08-05 09:41:30.500 ,6,0,0.,24.0,0.,24.0
1979-08-05 09:41:54.500 ,7,1,0.,24.0,0.,24.0
1979-08-05 09:42:18.500 ,7,0,0.,24.0,0.,24.0
1979-08-05 09:42:42.500 ,7,1,0.,24.0,0.,24.0
1979-08-05 09:43:06.500 ,7,0,0.,24.0,0.,24.0
1979-08-05 09:43:30.500 ,6,1,0.,24.0,0.,24.0
1979-08-05 09:43:54.500 ,6,0,0.,24.0,0.,24.0
1979-08-05 09:44:18.500 ,5,1,0.,24.0,0.,24.0
1979-08-05 09:44:42.500 ,5,0,0.,24.0,0.,24.0
1979-08-05 09:45:06.500 ,4,1,0.,24.0,0.,24.0
1979-08-05 09:45:30.500 ,4,0,0.,24.0,0.,24.0
1979-08-05 09:45:54.500 ,0,0,,0,,0
1979-08-05 09:46:18.500 ,0,0,0.,24.0,0.,24.0
1979-08-05 09:46:42.500 ,2,1,0.,24.0,0.,24.0
1979-08-05 09:47:06.500 ,2,0,0.,24.0,0.,24.0
1979-08-05 09:47:30.500 ,1,1,0.,24.0,0.,24.0
1979-08-05 09:47:54.500 ,1,0,0.,24.0,0.,24.0
1979-08-05 09:48:18.500 ,0,1,0.,24.0,0.,24.0
1979-08-05 09:48:42.500 ,0,0,0.,24.0,0.,24.0
1979-08-05 09:49:06.500 ,0,1,0.,24.0,0.,24.0
1979-08-05 09:49:30.500 ,0,0,0.,24.0,0.,24.0
1979-08-05 09:49:54.500 ,1,1,0.,24.0,0.,24.0
1979-08-05 09:50:18.500 ,1,0,0.,24.0,0.,24.0
1979-08-05 09:50:42.500 ,2,1,0.,24.0,0.,24.0
1979-08-05 09:51:06.500 ,2,0,0.,24.0,0.,24.0
1979-08-05 09:51:30.500 ,3,1,0.,24.0,0.,24.0
1979-08-05 09:51:54.500 ,3,0,0.,24.0,0.,24.0
1979-08-05 09:52:18.500 ,4,1,0.,24.0,0.,24.0
1979-08-05 09:52:42.500 ,4,0,0.,24.0,0.,24.0
1979-08-05 09:53:06.500 ,5,1,0.,24.0,0.,24.0
1979-08-05 09:53:30.500 ,5,0,0.,24.0,0.,24.0
1979-08-05 09:53:54.500 ,6,1,0.,24.0,0.,24.0
1979-08-05 09:54:18.500 ,6,0,0.,24.0,0.,24.0
1979-08-05 09:54:42.500 ,7,0,0.,24.0,0.,24.0
1979-08-05 09:55:06.500 ,7,0,0.,24.0,0.,24.0
1979-08-05 09:55:30.500 ,3,1,0.,24.0,0.,24.0
1979-08-05 09:55:54.500 ,0,1,0.,24.0,0.,24.0
1979-08-05 09:56:18.500 ,4,1,0.,24.0,0.,24.0
1979-08-05 09:56:42.500 ,7,1,0.,24.0,0.,24.0
1979-08-05 09:57:06.500 ,3,1,0.,24.0,0.,24.0
1979-08-05 09:57:30.500 ,0,1,0.,24.0,0.,24.0
1979-08-05 09:57:54.500 ,4,1,0.,24.0,0.,24.0
1979-08-05 09:58:18.500 ,7,1,0.,24.0,0.,24.0
1979-08-05 09:58:42.500 ,3,1,0.,24.0,0.,24.0
1979-08-05 09:59:06.500 ,0,1,0.,24.0,0.,24.0
1979-08-05 09:59:30.500 ,4,1,0.,24.0,0.,24.0
1979-08-05 09:59:54.500 ,7,1,0.,24.0,0.,24.0
1979-08-05 10:00:18.500 ,3,1,0.,24.0,0.,24.0
1979-08-05 10:00:42.500 ,0,1,0.,24.0,0.,24.0
1979-08-05 10:01:06.500 ,4,1,0.,24.0,0.,24.0
1979-08-05 10:01:30.500 ,7,1,0.,24.0,0.,24.0
1979-08-05 10:01:54.500 ,3,1,0.,24.0,0.,24.0
1979-08-05 10:02:18.500 ,0,1,0.,24.0,0.,24.0
1979-08-05 10:02:42.500 ,4,1,0.,24.0,0.,24.0
1979-08-05 10:03:06.500 ,7,1,0.,24.0,0.,24.0
1979-08-05 10:03:30.500 ,3,1,0.,24.0,0.,24.0
1979-08-05 10:03:54.500 ,0,1,0.,24.0,0.,24.0
1979-08-05 10:04:18.500 ,4,1,0.,24.0,0.,24.0
1979-08-05 10:04:42.500 ,7,1,0.,24.0,0.,24.0
1979-08-05 10:05:06.500 ,3,1,0.,24.0,0.,24.0
1979-08-05 10:05:30.500 ,0,1,0.,24.0,0.,24.0
1979-08-05 10:05:54.500 ,0,0,0.,24.0,0.,24.0
1979-08-05 10:06:18.500 ,0,0,0.,24.0,0.,24.0
1979-08-05 10:06:42.500 ,5,1,0.,24.0,0.,24.0
1979-08-05 10:07:06.500 ,5,0,0.,24.0,0.,24.0
1979-08-05 10:07:30.500 ,4,1,0.,24.0,0.,24.0
1979-08-05 10:07:54.500 ,4,0,0.,24.0,0.,24.0
1979-08-05 10:08:18.500 ,3,1,0.,24.0,0.,24.0
1979-08-05 10:08:42.500 ,3,0,0.,24.0,0.,24.0
1979-08-05 10:09:06.500 ,2,1,0.,24.0,0.,24.0
1979-08-05 10:09:30.500 ,2,0,0.,24.0,0.,24.0
1979-08-05 10:09:54.500 ,1,1,0.,24.0,0.,24.0
1979-08-05 10:10:18.500 ,1,0,0.,24.0,0.,24.0
1979-08-05 10:10:42.500 ,0,0,0.,24.0,0.,24.0
1979-08-05 10:11:06.500 ,0,0,0.,24.0,0.,24.0
1979-08-05 10:11:30.500 ,0,1,0.,24.0,0.,24.0
1979-08-05 10:11:54.500 ,0,0,0.,24.0,0.,24.0
1979-08-05 10:12:18.500 ,1,1,0.,24.0,0.,24.0
1979-08-05 10:12:42.500 ,1,0,0.,24.0,0.,24.0
1979-08-05 10:13:06.500 ,2,1,0.,24.0,0.,24.0
1979-08-05 10:13:30.500 ,2,0,0.,24.0,0.,24.0
1979-08-05 10:13:54.500 ,3,1,0.,24.0,0.,24.0
1979-08-05 10:14:18.500 ,3,0,0.,24.0,0.,24.0
1979-08-05 10:14:42.500 ,4,1,0.,24.0,0.,24.0
1979-08-05 10:15:06.500 ,4,0,0.,24.0,0.,24.0
1979-08-05 10:15:30.500 ,5,1,0.,24.0,0.,24.0
1979-08-05 10:15:54.500 ,5,0,0.,24.0,0.,24.0
1979-08-05 10:16:18.500 ,6,1,0.,24.0,0.,24.0
1979-08-05 10:16:42.500 ,6,0,0.,24.0,0.,24.0
1979-08-05 10:17:06.500 ,7,1,0.,24.0,0.,24.0
1979-08-05 10:17:30.500 ,7,0,0.,24.0,0.,24.0
1979-08-05 10:17:54.500 ,7,1,0.,24.0,0.,24.0
1979-08-05 10:18:18.500 ,7,0,0.,24.0,0.,24.0
1979-08-05 10:18:42.500 ,6,1,0.,24.0,0.,24.0
1979-08-05 10:19:06.500 ,6,0,0.,24.0,0.,24.0
1979-08-05 10:19:30.500 ,5,1,0.,24.0,0.,24.0
1979-08-05 10:19:54.500 ,5,0,0.,24.0,0.,24.0
1979-08-05 10:20:18.500 ,4,1,0.,24.0,0.,24.0
1979-08-05 10:20:42.500 ,4,0,0.,24.0,0.,24.0
1979-08-05 10:21:06.500 ,3,1,0.,24.0,0.,24.0
1979-08-05 10:21:30.500 ,3,0,0.,24.0,0.,24.0
1979-08-05 10:21:54.500 ,2,1,0.,24.0,0.,24.0
1979-08-05 10:22:18.500 ,2,0,0.,24.0,0.,24.0
1979-08-05 10:22:42.500 ,1,1,0.,24.0,0.,24.0
1979-08-05 10:23:06.500 ,1,0,0.,24.0,0.,24.0
1979-08-05 10:23:30.500 ,0,1,0.,24.0,0.,24.0
1979-08-05 10:23:54.500 ,0,0,0.,24.0,0.,24.0
1979-08-05 10:24:18.500 ,0,1,0.,24.0,0.,24.0
1979-08-05 10:24:42.500 ,0,0,0.,24.0,0.,24.0
1979-08-05 10:25:06.500 ,1,1,0.,24.0,0.,24.0
1979-08-05 10:25:30.500 ,1,0,0.,24.0,0.,24.0
1979-08-05 10:25:54.500 ,2,1,0.,24.0,0.,24.0
1979-08-05 10:26:18.500 ,2,0,0.,24.0,0.,24.0
1979-08-05 10:26:42.500 ,3,1,0.,24.0,0.,24.0
1979-08-05 10:27:06.500 ,3,0,0.,24.0,0.,24.0
1979-08-05 10:27:30.500 ,4,1,0.,24.0,0.,24.0
1979-08-05 10:27:54.500 ,4,0,0.,24.0,0.,24.0
1979-08-05 10:28:18.500 ,5,1,0.,24.0,0.,24.0
1979-08-05 10:28:42.500 ,5,0,0.,24.0,0.,24.0
1979-08-05 10:29:06.500 ,6,1,0.,24.0,0.,24.0
1979-08-05 10:29:30.500 ,6,0,0.,24.0,0.,24.0
1979-08-05 10:29:54.500 ,7,1,0.,24.0,0.,24.0
1979-08-05 10:30:18.500 ,7,0,0.,24.0,0.,24.0
1979-08-05 10:30:42.500 ,7,1,0.,24.0,0.,24.0
1979-08-05 10:31:06.500 ,7,0,0.,24.0,0.,24.0
1979-08-05 10:31:30.500 ,6,1,0.,24.0,0.,24.0
1979-08-05 10:31:54.500 ,6,0,1.,24.0,0.,24.0
1979-08-05 10:32:18.500 ,5,1,0.,24.0,0.,24.0
1979-08-05 10:32:42.500 ,5,0,0.,24.0,0.,24.0
1979-08-05 10:33:06.500 ,4,1,0.,24.0,0.,24.0
1979-08-05 10:33:30.500 ,4,0,0.,24.0,0.,24.0
1979-08-05 10:33:54.500 ,3,1,0.,24.0,0.,24.0
1979-08-05 10:34:18.500 ,3,0,0.,24.0,0.,24.0
1979-08-05 10:34:42.500 ,2,1,0.,24.0,0.,24.0
1979-08-05 10:35:06.500 ,2,0,0.,24.0,0.,24.0
1979-08-05 10:35:30.500 ,1,1,0.,24.0,0.,24.0
1979-08-05 10:35:54.500 ,1,0,0.,24.0,0.,24.0
1979-08-05 10:36:18.500 ,0,1,0.,24.0,0.,24.0
1979-08-05 10:36:42.500 ,0,0,0.,24.0,0.,24.0
1979-08-05 10:37:06.500 ,0,1,0.,24.0,0.,24.0
1979-08-05 10:37:30.500 ,0,0,0.,24.0,0.,24.0
1979-08-05 10:37:54.500 ,1,1,0.,24.0,0.,24.0
1979-08-05 10:38:18.500 ,1,0,0.,24.0,0.,24.0
1979-08-05 10:38:42.500 ,2,1,0.,24.0,0.,24.0
1979-08-05 10:39:06.500 ,2,0,0.,24.0,0.,24.0
1979-08-05 10:39:30.500 ,3,1,0.,24.0,0.,24.0
1979-08-05 10:39:54.500 ,3,0,0.,24.0,0.,24.0
1979-08-05 10:40:18.500 ,4,1,0.,24.0,0.,24.0
1979-08-05 10:40:42.500 ,4,0,0.,24.0,0.,24.0
1979-08-05 10:41:06.500 ,5,1,0.,24.0,0.,24.0
1979-08-05 10:41:30.500 ,5,0,0.,24.0,0.,24.0
1979-08-05 10:41:54.500 ,6,1,0.,24.0,0.,24.0
1979-08-05 10:42:18.500 ,6,0,0.,24.0,0.,24.0
1979-08-05 10:42:42.500 ,7,0,0.,24.0,0.,24.0
1979-08-05 10:43:06.500 ,7,0,0.,24.0,0.,24.0
1979-08-05 10:43:30.500 ,3,1,0.,24.0,0.,24.0
1979-08-05 10:43:54.500 ,0,1,0.,24.0,0.,24.0
1979-08-05 10:44:18.500 ,4,1,0.,24.0,0.,24.0
1979-08-05 10:44:42.500 ,7,1,0.,24.0,0.,24.0
1979-08-05 10:45:06.500 ,3,1,0.,24.0,0.,24.0
1979-08-05 10:45:30.500 ,0,1,0.,24.0,0.,24.0
1979-08-05 10:45:54.500 ,4,1,0.,24.0,0.,24.0
1979-08-05 10:46:18.500 ,7,1,0.,24.0,0.,24.0
1979-08-05 10:46:42.500 ,3,1,0.,24.0,0.,24.0
1979-08-05 10:47:06.500 ,0,1,0.,24.0,0.,24.0
1979-08-05 10:47:30.500 ,4,1,0.,24.0,0.,24.0
1979-08-05 10:47:54.500 ,7,1,0.,24.0,0.,24.0
1979-08-05 10:48:18.500 ,3,1,0.,24.0,0.,24.0
1979-08-05 10:48:42.500 ,0,1,0.,24.0,0.,24.0
1979-08-05 10:49:06.500 ,4,1,0.,24.0,0.,24.0
1979-08-05 10:49:30.500 ,7,1,0.,24.0,0.,24.0
1979-08-05 10:49:54.500 ,3,1,0.,24.0,0.,24.0
1979-08-05 10:50:18.500 ,0,1,0.,24.0,0.,24.0
1979-08-05 10:50:42.500 ,4,1,0.,24.0,0.,24.0
1979-08-05 10:51:06.500 ,7,1,0.,24.0,0.,24.0
1979-08-05 10:51:30.500 ,3,1,0.,24.0,0.,24.0
1979-08-05 10:51:54.500 ,0,1,0.,24.0,0.,24.0
1979-08-05 10:52:18.500 ,4,1,0.,24.0,0.,24.0
1979-08-05 10:52:42.500 ,7,1,0.,24.0,0.,24.0
1979-08-05 10:53:06.500 ,3,1,0.,24.0,0.,24.0
1979-08-05 10:53:30.500 ,0,1,0.,24.0,0.,24.0
1979-08-05 10:53:54.500 ,0,0,0.,24.0,0.,24.0
1979-08-05 10:54:18.500 ,0,0,0.,24.0,0.,24.0
1979-08-05 10:54:42.500 ,5,1,0.,24.0,0.,24.0
1979-08-05 10:55:06.500 ,5,0,0.,24.0,0.,24.0
1979-08-05 10:55:30.500 ,4,1,0.,24.0,0.,24.0
1979-08-05 10:55:54.500 ,4,0,0.,24.0,0.,24.0
1979-08-05 10:56:18.500 ,3,1,0.,24.0,0.,24.0
1979-08-05 10:56:42.500 ,3,0,0.,24.0,0.,24.0
1979-08-05 10:57:06.500 ,2,1,0.,24.0,0.,24.0
1979-08-05 10:57:30.500 ,2,0,0.,24.0,0.,24.0
1979-08-05 10:57:54.500 ,1,1,0.,24.0,0.,24.0
1979-08-05 10:58:18.500 ,1,0,0.,24.0,0.,24.0
1979-08-05 10:58:42.500 ,0,1,0.,24.0,0.,24.0
1979-08-05 10:59:06.500 ,0,0,0.,24.0,0.,24.0
1979-08-05 10:59:30.500 ,0,1,0.,24.0,0.,24.0
1979-08-05 10:59:54.500 ,0,0,0.,24.0,0.,24.0
1979-08-05 11:00:18.500 ,1,1,0.,24.0,0.,24.0
1979-08-05 11:00:42.500 ,1,0,0.,24.0,0.,24.0
1979-08-05 11:01:06.500 ,2,1,0.,24.0,0.,24.0
1979-08-05 11:01:30.500 ,2,0,0.,24.0,0.,24.0
1979-08-05 11:01:54.500 ,3,1,0.,24.0,0.,24.0
1979-08-05 11:02:18.500 ,3,0,0.,24.0,0.,24.0
1979-08-05 11:02:42.500 ,4,1,0.,24.0,0.,24.0
1979-08-05 11:03:06.500 ,4,0,0.,24.0,0.,24.0
1979-08-05 11:03:30.500 ,5,1,0.,24.0,0.,24.0
1979-08-05 11:03:54.500 ,0,0,,0,,0
1979-08-05 11:07:09.500 ,0,0,0.,24.0,0.,24.0
1979-08-05 11:07:30.500 ,5,1,0.,24.0,0.,24.0
1979-08-05 11:07:54.500 ,5,0,0.,24.0,0.,24.0
1979-08-05 11:08:18.500 ,4,1,0.,24.0,0.,24.0
1979-08-05 11:08:42.500 ,4,0,0.,24.0,0.,24.0
1979-08-05 11:09:06.500 ,3,1,0.,24.0,0.,24.0
1979-08-05 11:09:30.500 ,3,0,0.,24.0,0.,24.0
1979-08-05 11:09:54.500 ,2,1,0.,24.0,0.,24.0
1979-08-05 11:10:18.500 ,2,0,0.,24.0,0.,24.0
1979-08-05 11:10:42.500 ,1,1,0.,24.0,0.,24.0
1979-08-05 11:11:06.500 ,1,0,0.,24.0,0.,24.0
1979-08-05 11:11:30.500 ,0,1,0.,24.0,0.,24.0
1979-08-05 11:11:54.500 ,0,0,0.,24.0,0.,24.0
1979-08-05 11:12:18.500 ,0,1,0.,24.0,0.,24.0
1979-08-05 11:12:42.500 ,0,0,0.,24.0,0.,24.0
1979-08-05 11:13:06.500 ,1,1,0.,24.0,0.,24.0
1979-08-05 11:13:30.500 ,1,0,0.,24.0,0.,24.0
1979-08-05 11:13:54.500 ,2,1,0.,24.0,0.,24.0
1979-08-05 11:14:18.500 ,2,0,0.,24.0,0.,24.0
1979-08-05 11:14:42.500 ,3,1,0.,24.0,0.,24.0
1979-08-05 11:15:06.500 ,3,0,0.,24.0,0.,24.0
1979-08-05 11:15:30.500 ,4,1,0.,24.0,0.,24.0
1979-08-05 11:15:54.500 ,4,0,1.,24.0,0.,24.0
1979-08-05 11:16:18.500 ,5,1,0.,24.0,0.,24.0
1979-08-05 11:16:42.500 ,5,0,0.,24.0,0.,24.0
1979-08-05 11:17:06.500 ,6,1,0.,24.0,0.,24.0
1979-08-05 11:17:30.500 ,6,0,0.,24.0,0.,24.0
1979-08-05 11:17:54.500 ,7,1,0.,24.0,0.,24.0
1979-08-05 11:18:18.500 ,7,0,0.,24.0,0.,24.0
1979-08-05 11:18:42.500 ,7,1,0.,24.0,0.,24.0
1979-08-05 11:19:06.500 ,7,0,0.,24.0,0.,24.0
1979-08-05 11:19:30.500 ,6,1,0.,24.0,0.,24.0
1979-08-05 11:19:54.500 ,6,0,0.,24.0,0.,24.0
1979-08-05 11:20:18.500 ,5,1,0.,24.0,0.,24.0
1979-08-05 11:20:42.500 ,5,0,0.,24.0,0.,24.0
1979-08-05 11:21:06.500 ,4,1,0.,24.0,0.,24.0
1979-08-05 11:21:30.500 ,4,0,0.,24.0,0.,24.0
1979-08-05 11:21:54.500 ,3,1,0.,24.0,0.,24.0
1979-08-05 11:22:18.500 ,3,0,0.,24.0,0.,24.0
1979-08-05 11:22:42.500 ,2,1,0.,24.0,0.,24.0
1979-08-05 11:23:06.500 ,2,0,0.,24.0,0.,24.0
1979-08-05 11:23:30.500 ,1,1,0.,24.0,0.,24.0
1979-08-05 11:23:54.500 ,1,0,0.,24.0,0.,24.0
1979-08-05 11:24:18.500 ,0,1,0.,24.0,0.,24.0
1979-08-05 11:24:42.500 ,0,0,0.,24.0,0.,24.0
1979-08-05 11:25:06.500 ,0,1,0.,24.0,0.,24.0
1979-08-05 11:25:30.500 ,0,0,0.,24.0,0.,24.0
1979-08-05 11:25:54.500 ,1,1,0.,24.0,0.,24.0
1979-08-05 11:26:18.500 ,1,0,0.,24.0,0.,24.0
1979-08-05 11:26:42.500 ,2,1,0.,24.0,0.,24.0
1979-08-05 11:27:06.500 ,2,0,0.,24.0,0.,24.0
1979-08-05 11:27:30.500 ,3,1,0.,24.0,0.,24.0
1979-08-05 11:27:54.500 ,3,0,0.,24.0,0.,24.0
1979-08-05 11:28:18.500 ,4,1,0.,24.0,0.,24.0
1979-08-05 11:28:42.500 ,4,0,0.,24.0,0.,24.0
1979-08-05 11:29:06.500 ,5,1,0.,24.0,0.,24.0
1979-08-05 11:29:30.500 ,5,0,0.,24.0,0.,24.0
1979-08-05 11:29:54.500 ,6,1,0.,24.0,0.,24.0
1979-08-05 11:30:18.500 ,6,0,0.,24.0,0.,24.0
1979-08-05 11:30:42.500 ,7,0,0.,24.0,0.,24.0
1979-08-05 11:31:06.500 ,7,0,0.,24.0,0.,24.0
1979-08-05 11:31:30.500 ,3,1,0.,24.0,0.,24.0
1979-08-05 11:31:54.500 ,0,1,0.,24.0,0.,24.0
1979-08-05 11:32:18.500 ,4,1,0.,24.0,0.,24.0
1979-08-05 11:32:42.500 ,7,1,0.,24.0,0.,24.0
1979-08-05 11:33:06.500 ,3,1,0.,24.0,0.,24.0
1979-08-05 11:33:30.500 ,0,1,0.,24.0,0.,24.0
1979-08-05 11:33:54.500 ,4,1,0.,24.0,0.,24.0
1979-08-05 11:34:18.500 ,7,1,0.,24.0,0.,24.0
1979-08-05 11:34:42.500 ,3,1,0.,24.0,0.,24.0
1979-08-05 11:35:06.500 ,0,1,0.,24.0,0.,24.0
1979-08-05 11:35:30.500 ,4,1,0.,24.0,0.,24.0
1979-08-05 11:35:54.500 ,7,1,0.,24.0,0.,24.0
1979-08-05 11:36:18.500 ,3,1,0.,24.0,0.,24.0
1979-08-05 11:36:42.500 ,0,1,0.,24.0,0.,24.0
1979-08-05 11:37:06.500 ,4,1,0.,24.0,0.,24.0
1979-08-05 11:37:30.500 ,7,1,0.,24.0,0.,24.0
1979-08-05 11:37:54.500 ,3,1,0.,24.0,0.,24.0
1979-08-05 11:38:18.500 ,0,1,0.,24.0,0.,24.0
1979-08-05 11:38:42.500 ,4,1,0.,24.0,0.,24.0
1979-08-05 11:39:06.500 ,7,1,0.,24.0,0.,24.0
1979-08-05 11:39:30.500 ,3,1,0.,24.0,0.,24.0
1979-08-05 11:39:54.500 ,0,1,0.,24.0,0.,24.0
1979-08-05 11:40:18.500 ,4,1,0.,24.0,0.,24.0
1979-08-05 11:40:42.500 ,7,1,0.,24.0,0.,24.0
1979-08-05 11:41:06.500 ,3,1,0.,24.0,0.,24.0
1979-08-05 11:41:30.500 ,0,1,0.,24.0,0.,24.0
1979-08-05 11:41:54.500 ,0,0,0.,24.0,0.,24.0
1979-08-05 11:42:18.500 ,0,0,0.,24.0,0.,24.0
1979-08-05 11:42:42.500 ,5,1,0.,24.0,0.,24.0
1979-08-05 11:43:06.500 ,5,0,0.,24.0,0.,24.0
1979-08-05 11:43:30.500 ,4,1,0.,24.0,0.,24.0
1979-08-05 11:43:54.500 ,4,0,0.,24.0,0.,24.0
1979-08-05 11:44:18.500 ,3,1,0.,24.0,0.,24.0
1979-08-05 11:44:42.500 ,3,0,0.,24.0,0.,24.0
1979-08-05 11:45:06.500 ,2,1,0.,24.0,0.,24.0
1979-08-05 11:45:30.500 ,2,0,0.,24.0,0.,24.0
1979-08-05 11:45:54.490 ,1,1,0.,24.0,0.,24.0
1979-08-05 11:46:18.490 ,1,0,0.,24.0,0.,24.0
1979-08-05 11:46:42.490 ,0,1,0.,24.0,0.,24.0
1979-08-05 11:47:06.490 ,0,0,0.,24.0,0.,24.0
1979-08-05 11:47:30.490 ,0,1,0.,24.0,0.,24.0
1979-08-05 11:47:54.490 ,0,0,0.,24.0,0.,24.0
1979-08-05 11:48:18.490 ,1,1,0.,24.0,0.,24.0
1979-08-05 11:48:42.490 ,1,0,0.,24.0,0.,24.0
1979-08-05 11:49:06.490 ,2,1,0.,24.0,0.,24.0
1979-08-05 11:49:30.490 ,2,0,0.,24.0,0.,24.0
1979-08-05 11:49:54.490 ,3,1,0.,24.0,0.,24.0
1979-08-05 11:50:18.490 ,3,0,0.,24.0,0.,24.0
1979-08-05 11:50:42.490 ,4,1,0.,24.0,0.,24.0
1979-08-05 11:51:06.490 ,4,0,0.,24.0,0.,24.0
1979-08-05 11:51:30.490 ,5,1,0.,24.0,0.,24.0
1979-08-05 11:51:54.490 ,5,0,0.,24.0,0.,24.0
1979-08-05 11:52:18.490 ,6,1,0.,24.0,0.,24.0
1979-08-05 11:52:42.490 ,6,0,0.,24.0,0.,24.0
1979-08-05 11:53:06.490 ,7,1,0.,24.0,0.,24.0
1979-08-05 11:53:30.490 ,7,0,0.,24.0,0.,24.0
1979-08-05 11:53:54.490 ,7,1,0.,24.0,0.,24.0
1979-08-05 11:54:18.490 ,7,1,0.,24.0,0.,24.0
1979-08-05 11:54:42.490 ,0,0,,0,,0
1979-08-05 11:55:06.490 ,0,0,0.,24.0,0.,24.0
1979-08-05 11:55:30.490 ,5,1,0.,24.0,0.,24.0
1979-08-05 11:55:54.490 ,5,0,0.,24.0,0.,24.0
1979-08-05 11:56:18.490 ,4,1,0.,24.0,0.,24.0
1979-08-05 11:56:42.490 ,4,0,0.,24.0,1.,24.0
1979-08-05 11:57:06.490 ,3,1,0.,24.0,0.,24.0
1979-08-05 11:57:30.490 ,3,0,0.,24.0,0.,24.0
1979-08-05 11:57:54.490 ,2,1,0.,24.0,0.,24.0
1979-08-05 11:58:18.490 ,2,0,0.,24.0,0.,24.0
1979-08-05 11:58:42.490 ,1,1,0.,24.0,0.,24.0
1979-08-05 11:59:06.490 ,1,0,0.,24.0,0.,24.0
1979-08-05 11:59:30.490 ,0,1,0.,24.0,0.,24.0
1979-08-05 11:59:54.490 ,0,0,0.,24.0,0.,24.0
1979-08-05 12:00:18.490 ,0,1,0.,24.0,0.,24.0
